Worcester, MA

8:05 AM EDT on June 28, 2017 (GMT -0400)
Worcester Regional

Weather History for KORH - February, 2013

Change the Weather History Date:

Sunday, February 17, 2013

  Actual Average Record
Temperature  
Mean Temperature 19 °F 27 °F  
Max Temperature 25 °F 35 °F 56 °F (1981)
Min Temperature 12 °F 20 °F -14 °F (1896)
Degree Days  
Heating Degree Days 46 38  
Month to date heating degree days 664 664  
Since 1 July heating degree days 4055 4437  
Cooling Degree Days 0 0  
Month to date cooling degree days 0 0  
Year to date cooling degree days 0 0  
Moisture  
Dew Point 7 °F    
Average Humidity 60    
Maximum Humidity 80    
Minimum Humidity 39    
Precipitation  
Precipitation 0.09 in 0.12 in 1.25 in (2003)
Month to date precipitation 2.83 1.93  
Year to date precipitation 4.78 5.42  
Sea Level Pressure  
Sea Level Pressure 29.53 in    
Wind  
Wind Speed 22 mph (NW)    
Max Wind Speed 38 mph    
Max Gust Speed 55 mph    
Visibility 4 miles    
Events Snow    
T = Trace of Precipitation, MM = Missing Value Source: NWS Daily Summary

Daily Weather History Graph

Daily Weather History Graph

Search for Another Location

Airport or City:

Trip Planner

Search our weather history database for the weather conditions in past years. The results will help you decide how hot, cold, wet, or windy it might be!

Date:

Astronomy

Feb. 17, 2013 Rise Set
Actual Time 6:40 AM EST 5:22 PM EST
Civil Twilight 6:12 AM EST 5:51 PM EST
Nautical Twilight 5:39 AM EST 6:24 PM EST
Astronomical Twilight 5:06 AM EST 6:56 PM EST
Moon 10:22 AM EST (2/17) 12:24 AM EST (2/17)
Length of Visible Light 11h 39m
Length of Day
10h 42m
Waxing Crescent, 49% of the Moon is Illuminated
Feb 17
Waxing Crescent
Feb 17
First Quarter
Feb 25
Full
Mar 4
Last Quarter
Mar 11
New

Hourly Weather History & Observations

Time (EST) Temp. Windchill Dew Point Humidity Pressure Visibility Wind Dir Wind Speed Gust Speed Precip Events Conditions
12:41 AM 23.0 °F 11.1 °F 16.0 °F 74% 29.64 in 2.5 mi North 12.7 mph 21.9 mph 0.00 in Snow Light Snow
12:50 AM 23.0 °F 13.1 °F 15.8 °F 74% 29.64 in 2.5 mi NNW 9.2 mph 19.6 mph 0.00 in Snow Light Snow
12:54 AM 23.0 °F 10.6 °F 16.0 °F 74% 29.68 in 2.5 mi NNW 13.8 mph 19.6 mph 0.00 in Snow Light Snow
1:27 AM 21.9 °F 11.0 °F 14.0 °F 72% 29.64 in 3.0 mi North 10.4 mph 19.6 mph 0.00 in Snow Light Snow
1:46 AM 21.9 °F 8.2 °F 12.9 °F 68% 29.62 in 2.5 mi North 16.1 mph 21.9 mph 0.00 in Snow Light Snow
1:54 AM 21.9 °F 10.4 °F 12.9 °F 68% 29.66 in 3.0 mi North 11.5 mph 21.9 mph 0.00 in Snow Light Snow
2:16 AM 21.0 °F 8.1 °F 12.0 °F 68% 29.61 in 2.5 mi NNW 13.8 mph 21.9 mph 0.00 in Snow Light Snow
2:25 AM 21.0 °F 8.1 °F 12.0 °F 68% 29.61 in 4.0 mi NNW 13.8 mph - 0.00 in Snow Light Snow
2:39 AM 21.0 °F 8.6 °F 10.0 °F 63% 29.60 in 8.0 mi North 12.7 mph 21.9 mph 0.00 in Snow Light Snow
2:54 AM 21.9 °F 8.7 °F 8.1 °F 55% 29.64 in 9.0 mi North 15.0 mph 23.0 mph 0.00 in   Overcast
3:19 AM 21.0 °F 6.2 °F 8.1 °F 57% 29.56 in 3.0 mi North 18.4 mph 25.3 mph 0.00 in Snow Light Snow
3:30 AM 19.9 °F 6.2 °F 10.0 °F 65% 29.57 in 2.5 mi North 15.0 mph 28.8 mph 0.00 in Snow Light Snow
3:54 AM 19.9 °F 6.2 °F 10.9 °F 68% 29.62 in 2.5 mi NNW 15.0 mph - 0.00 in Snow Light Snow
4:16 AM 19.0 °F 5.0 °F 12.0 °F 74% 29.57 in 3.0 mi NNW 15.0 mph 25.3 mph 0.00 in Snow Light Snow
4:30 AM 19.0 °F 3.6 °F 10.9 °F 71% 29.55 in 3.0 mi NNW 18.4 mph 26.5 mph 0.00 in Snow Light Snow
4:36 AM 19.0 °F 3.6 °F 10.9 °F 71% 29.55 in 2.5 mi NNW 18.4 mph 26.5 mph 0.00 in Snow Light Snow
4:51 AM 19.4 °F 7.2 °F 10.4 °F 68% 29.56 in 1.5 mi NNW 11.5 mph 26.5 mph 0.00 in Snow Light Snow
4:54 AM 18.0 °F 4.2 °F 10.9 °F 74% 29.60 in 1.2 mi NNW 13.8 mph - 0.00 in Snow Light Snow
5:02 AM 18.0 °F 3.1 °F 12.0 °F 78% 29.55 in 0.8 mi NNW 16.1 mph 25.3 mph 0.00 in Snow Light Snow
5:16 AM 17.1 °F 3.6 °F 12.9 °F 84% 29.54 in 0.8 mi NNW 12.7 mph - 0.01 in Snow Light Snow
5:35 AM 17.1 °F 2.0 °F 12.0 °F 81% 29.53 in 1.0 mi NW 16.1 mph 25.3 mph 0.02 in Snow Light Snow
5:54 AM 16.0 °F 0.1 °F 10.9 °F 81% 29.56 in 1.0 mi NW 17.3 mph 24.2 mph 0.02 in Snow Light Snow
6:10 AM 16.0 °F -0.4 °F 10.9 °F 81% 29.50 in 1.5 mi NW 18.4 mph 31.1 mph 0.00 in Snow Light Snow
6:54 AM 16.0 °F 0.1 °F 10.0 °F 77% 29.52 in 1.5 mi NW 17.3 mph 26.5 mph 0.00 in Snow Light Snow
7:54 AM 16.0 °F -0.9 °F 8.1 °F 71% 29.49 in 0.8 mi NW 19.6 mph 38.0 mph 0.00 in Snow Light Snow
8:11 AM 16.0 °F -1.7 °F 7.0 °F 68% 29.43 in 1.0 mi NW 21.9 mph 35.7 mph 0.00 in Snow Light Snow
8:35 AM 16.0 °F -3.8 °F 6.1 °F 65% 29.42 in 0.8 mi NW 28.8 mph 36.8 mph 0.00 in Snow Light Snow
8:52 AM 15.8 °F -3.1 °F 5.0 °F 62% 29.41 in 1.5 mi NW 25.3 mph 34.5 mph 0.00 in Snow Light Snow
8:54 AM 16.0 °F -2.8 °F 5.0 °F 62% 29.45 in 1.5 mi NW 25.3 mph 34.5 mph 0.00 in Snow Light Snow
9:54 AM 18.0 °F 1.7 °F 3.0 °F 52% 29.42 in 5.0 mi NW 19.6 mph 33.4 mph 0.00 in   Overcast
10:44 AM 17.1 °F -2.7 °F 5.0 °F 59% 29.38 in 1.8 mi NW 29.9 mph 40.3 mph 0.00 in Snow Blowing Snow
10:54 AM 18.0 °F -0.2 °F 3.9 °F 54% 29.43 in 2.5 mi NW 25.3 mph 36.8 mph 0.00 in Snow Blowing Snow
11:06 AM 18.0 °F -0.2 °F 3.9 °F 54% 29.38 in 5.0 mi NW 25.3 mph 40.3 mph N/A Snow Blowing Snow
11:54 AM 18.0 °F 0.6 °F 3.0 °F 52% 29.43 in 7.0 mi NW 23.0 mph 38.0 mph 0.00 in   Overcast
12:29 PM 18.0 °F -0.2 °F 3.0 °F 52% 29.39 in 2.5 mi WNW 25.3 mph 44.9 mph 0.00 in Snow Blowing Snow
12:36 PM 18.0 °F -0.5 °F 3.9 °F 54% 29.39 in 5.0 mi WNW 26.5 mph 40.3 mph 0.00 in Snow Blowing Snow
12:54 PM 18.0 °F -0.8 °F 3.0 °F 52% 29.44 in 3.0 mi NW 27.6 mph 40.3 mph 0.00 in Snow Blowing Snow
1:06 PM 18.0 °F -2.6 °F 3.0 °F 52% 29.39 in 1.8 mi WNW 34.5 mph 47.2 mph N/A Snow Blowing Snow
1:17 PM 18.0 °F -1.1 °F 3.0 °F 52% 29.39 in 3.0 mi WNW 28.8 mph 41.4 mph N/A Snow Blowing Snow
1:54 PM 19.0 °F -0.3 °F 1.9 °F 47% 29.44 in 5.0 mi WNW 31.1 mph 48.3 mph N/A Snow Blowing Snow
2:54 PM 19.0 °F -0.5 °F -0.0 °F 43% 29.47 in 10.0 mi WNW 32.2 mph 50.6 mph N/A   Overcast
3:54 PM 19.9 °F 4.3 °F 1.0 °F 44% 29.49 in 10.0 mi NW 19.6 mph 35.7 mph N/A   Overcast
4:54 PM 21.0 °F 6.6 °F -0.0 °F 40% 29.52 in 10.0 mi WNW 17.3 mph - N/A   Overcast
5:54 PM 19.9 °F 2.2 °F -2.0 °F 38% 29.57 in 10.0 mi WNW 26.5 mph 41.4 mph N/A   Overcast
6:54 PM 19.4 °F 4.1 °F -2.2 °F 39% 29.52 in 10.0 mi WNW 18.4 mph 40.3 mph N/A   Overcast
7:54 PM 18.0 °F -0.5 °F -2.0 °F 41% 29.58 in 10.0 mi West 26.5 mph 39.1 mph N/A   Overcast
8:54 PM 16.0 °F -2.8 °F -0.9 °F 47% 29.60 in 10.0 mi West 25.3 mph 35.7 mph N/A   Overcast
9:54 PM 14.0 °F -6.8 °F -2.0 °F 49% 29.62 in 10.0 mi WNW 29.9 mph 43.7 mph N/A   Overcast
10:54 PM 12.9 °F -6.9 °F -2.0 °F 51% 29.67 in 10.0 mi WNW 25.3 mph 41.4 mph N/A   Overcast
11:54 PM 12.0 °F -9.5 °F -2.0 °F 53% 29.69 in 10.0 mi WNW 29.9 mph 43.7 mph N/A   Mostly Cloudy